TimeCDT,TemperatureF,Dew PointF,Humidity,Sea Level PressureIn,VisibilityMPH,Wind Direction,Wind SpeedMPH,Gust SpeedMPH,PrecipitationIn,Events,Conditions,WindDirDegrees,DateUTC
12:15 AM,41.0,36.5,84,29.92,10.0,Calm,Calm,-,N/A,,Light Drizzle,0,2013-10-22 05:15:00
12:35 AM,41.0,36.5,84,29.92,10.0,WSW,3.5,-,N/A,,Light Drizzle,250,2013-10-22 05:35:00
12:55 AM,43.0,36.1,77,29.92,10.0,Calm,Calm,-,N/A,Rain,Light Rain,0,2013-10-22 05:55:00
1:15 AM,43.0,36.5,78,29.91,10.0,Calm,Calm,-,N/A,,Light Drizzle,0,2013-10-22 06:15:00
1:35 AM,43.7,36.7,76,29.91,10.0,Calm,Calm,-,N/A,,Overcast,0,2013-10-22 06:35:00
1:55 AM,43.9,37.4,78,29.91,10.0,Calm,Calm,-,N/A,,Overcast,0,2013-10-22 06:55:00
2:15 AM,44.1,37.8,78,29.91,10.0,NW,3.5,-,N/A,,Mostly Cloudy,310,2013-10-22 07:15:00
2:35 AM,43.3,38.7,84,29.91,10.0,NW,4.6,-,N/A,,Scattered Clouds,310,2013-10-22 07:35:00
2:55 AM,43.7,39.9,87,29.91,10.0,WNW,9.2,-,N/A,,Clear,300,2013-10-22 07:55:00
3:15 AM,47.3,41.2,79,29.91,10.0,WNW,11.5,17.3,N/A,,Clear,300,2013-10-22 08:15:00
3:35 AM,47.3,41.2,79,29.91,10.0,WNW,9.2,-,N/A,,Clear,290,2013-10-22 08:35:00
3:55 AM,46.6,41.2,81,29.90,10.0,WNW,6.9,-,N/A,,Clear,290,2013-10-22 08:55:00
4:15 AM,46.2,41.0,82,29.90,10.0,WNW,6.9,-,N/A,,Clear,300,2013-10-22 09:15:00
4:35 AM,47.1,41.4,80,29.90,10.0,WNW,9.2,-,N/A,,Clear,290,2013-10-22 09:35:00
4:55 AM,47.5,41.2,79,29.90,10.0,WNW,10.4,18.4,N/A,,Clear,300,2013-10-22 09:55:00
5:15 AM,47.3,41.2,79,29.90,10.0,WNW,10.4,-,N/A,,Clear,300,2013-10-22 10:15:00
5:35 AM,46.6,40.8,80,29.90,10.0,WNW,9.2,-,N/A,,Clear,300,2013-10-22 10:35:00
5:55 AM,46.0,40.5,81,29.91,10.0,NW,10.4,-,N/A,,Scattered Clouds,310,2013-10-22 10:55:00
6:15 AM,46.6,40.6,80,29.91,10.0,NW,11.5,16.1,N/A,,Mostly Cloudy,320,2013-10-22 11:15:00
6:35 AM,46.8,40.5,79,29.91,10.0,NW,15.0,23.0,N/A,,Mostly Cloudy,320,2013-10-22 11:35:00
6:55 AM,46.8,40.1,78,29.92,10.0,NW,19.6,24.2,N/A,,Mostly Cloudy,320,2013-10-22 11:55:00
7:15 AM,46.4,39.6,77,29.92,10.0,NW,17.3,23.0,N/A,,Scattered Clouds,320,2013-10-22 12:15:00
7:35 AM,46.6,39.4,76,29.93,10.0,NW,16.1,20.7,N/A,,Mostly Cloudy,320,2013-10-22 12:35:00
7:55 AM,46.4,39.4,77,29.95,10.0,NNW,12.7,21.9,N/A,,Overcast,330,2013-10-22 12:55:00
8:15 AM,46.4,39.4,77,29.95,10.0,NNW,16.1,-,N/A,,Overcast,340,2013-10-22 13:15:00
8:35 AM,45.1,38.3,77,29.97,10.0,NNW,13.8,20.7,N/A,,Overcast,330,2013-10-22 13:35:00
8:55 AM,45.5,38.1,75,29.98,10.0,NNW,12.7,19.6,N/A,,Overcast,340,2013-10-22 13:55:00
9:15 AM,45.7,38.1,75,29.99,10.0,NNW,15.0,21.9,N/A,,Overcast,340,2013-10-22 14:15:00
9:35 AM,46.4,37.8,72,29.99,10.0,NNW,16.1,23.0,N/A,,Mostly Cloudy,330,2013-10-22 14:35:00
9:55 AM,46.8,37.4,70,29.99,10.0,NNW,16.1,23.0,N/A,,Scattered Clouds,330,2013-10-22 14:55:00
10:15 AM,47.3,37.2,68,30.00,10.0,NNW,16.1,25.3,N/A,,Scattered Clouds,330,2013-10-22 15:15:00
10:35 AM,48.2,37.0,65,30.00,10.0,NNW,16.1,20.7,N/A,,Scattered Clouds,330,2013-10-22 15:35:00
10:55 AM,49.5,37.4,63,30.01,10.0,NNW,19.6,24.2,N/A,,Scattered Clouds,340,2013-10-22 15:55:00
11:15 AM,49.1,36.9,63,30.01,10.0,NNW,13.8,26.5,N/A,,Overcast,340,2013-10-22 16:15:00
11:35 AM,49.1,37.4,64,30.01,10.0,NNW,15.0,20.7,N/A,,Overcast,340,2013-10-22 16:35:00
11:55 AM,48.2,37.2,66,30.02,10.0,NNW,12.7,18.4,N/A,,Overcast,330,2013-10-22 16:55:00
12:15 PM,48.4,37.6,66,30.02,10.0,NNW,15.0,24.2,N/A,,Overcast,330,2013-10-22 17:15:00
12:35 PM,48.2,36.9,65,30.03,10.0,NNW,18.4,-,N/A,,Overcast,340,2013-10-22 17:35:00
12:55 PM,49.1,36.7,62,30.03,10.0,NNW,21.9,28.8,N/A,,Overcast,330,2013-10-22 17:55:00
1:15 PM,48.4,34.9,60,30.03,10.0,NNW,20.7,31.1,N/A,,Overcast,330,2013-10-22 18:15:00
1:35 PM,48.2,34.7,60,30.03,10.0,NNW,21.9,31.1,N/A,,Overcast,330,2013-10-22 18:35:00
1:55 PM,48.2,35.6,62,30.03,10.0,NNW,16.1,20.7,N/A,,Overcast,340,2013-10-22 18:55:00
2:15 PM,47.8,34.0,59,30.03,10.0,NNW,17.3,26.5,N/A,,Overcast,340,2013-10-22 19:15:00
2:35 PM,47.7,33.3,57,30.03,10.0,NNW,19.6,26.5,N/A,,Overcast,330,2013-10-22 19:35:00
2:55 PM,47.8,34.0,59,30.03,10.0,North,18.4,25.3,N/A,,Overcast,350,2013-10-22 19:55:00
3:15 PM,47.8,34.3,60,30.04,10.0,NNW,20.7,26.5,N/A,,Overcast,330,2013-10-22 20:15:00
3:35 PM,46.0,34.0,63,30.05,10.0,North,13.8,20.7,N/A,,Overcast,350,2013-10-22 20:35:00
3:55 PM,45.5,33.8,64,30.06,10.0,North,15.0,20.7,N/A,,Overcast,350,2013-10-22 20:55:00
4:15 PM,46.2,33.1,60,30.06,10.0,NNW,18.4,27.6,N/A,,Overcast,330,2013-10-22 21:15:00
4:35 PM,45.9,32.9,61,30.07,10.0,NNW,15.0,21.9,N/A,,Overcast,340,2013-10-22 21:35:00
4:55 PM,45.7,33.3,62,30.08,10.0,North,15.0,20.7,N/A,,Overcast,350,2013-10-22 21:55:00
5:15 PM,45.3,33.1,62,30.08,10.0,North,11.5,17.3,N/A,,Overcast,350,2013-10-22 22:15:00
5:35 PM,44.6,32.9,64,30.08,10.0,NNW,13.8,19.6,N/A,,Overcast,330,2013-10-22 22:35:00
5:55 PM,44.6,32.7,63,30.08,10.0,NNW,10.4,25.3,N/A,,Overcast,340,2013-10-22 22:55:00
6:15 PM,43.2,32.7,67,30.09,10.0,NNW,9.2,-,N/A,,Mostly Cloudy,340,2013-10-22 23:15:00
6:35 PM,43.0,32.4,66,30.10,10.0,NNW,10.4,21.9,N/A,,Mostly Cloudy,340,2013-10-22 23:35:00
6:55 PM,42.4,32.2,67,30.09,10.0,NNW,10.4,-,N/A,,Overcast,340,2013-10-22 23:55:00
7:15 PM,41.4,32.4,70,30.10,10.0,North,8.1,-,N/A,,Mostly Cloudy,360,2013-10-23 00:15:00
7:35 PM,40.3,32.0,72,30.10,10.0,North,8.1,-,N/A,,Clear,350,2013-10-23 00:35:00
7:55 PM,38.7,32.0,77,30.10,10.0,North,4.6,-,N/A,,Clear,10,2013-10-23 00:55:00
8:15 PM,36.9,32.0,83,30.10,10.0,North,3.5,-,N/A,,Clear,10,2013-10-23 01:15:00
8:35 PM,35.1,31.1,85,30.10,10.0,Calm,Calm,-,N/A,,Clear,0,2013-10-23 01:35:00
8:55 PM,35.2,31.1,85,30.11,10.0,Calm,Calm,-,N/A,,Clear,0,2013-10-23 01:55:00
9:35 PM,32.0,28.9,88,30.11,10.0,Calm,Calm,-,N/A,,Clear,0,2013-10-23 02:35:00
10:15 PM,31.5,29.1,91,30.11,10.0,Calm,Calm,-,N/A,,Clear,0,2013-10-23 03:15:00
10:35 PM,29.1,26.6,90,30.11,10.0,Calm,Calm,-,N/A,,Clear,0,2013-10-23 03:35:00
10:55 PM,29.7,27.5,92,30.12,10.0,Calm,Calm,-,N/A,,Clear,0,2013-10-23 03:55:00
11:15 PM,30.0,27.5,90,30.11,10.0,Calm,Calm,-,N/A,,Clear,0,2013-10-23 04:15:00
11:35 PM,28.4,25.7,90,30.12,10.0,Calm,Calm,-,N/A,,Clear,0,2013-10-23 04:35:00
11:55 PM,28.9,26.4,90,30.11,10.0,Calm,Calm,-,N/A,,Clear,0,2013-10-23 04:55:00